{"data":{"norad_id":68059,"epoch":"2026-09-19T12:18:34.237728Z","epoch_age_seconds":144845,"freshness":"FRESH","line1":"1 68059U 26041V   26262.51289627  .00015825  00000+0  47840-3 0  9995","line2":"2 68059  53.1560 224.6021 0002049  98.6005 261.5229 15.34407340 31136","mean_motion":15.3440734,"eccentricity":0.0002049,"inclination_deg":53.156,"raan_deg":224.6021,"arg_perigee_deg":98.6005,"mean_anomaly_deg":261.5229,"bstar":0.0004784,"rev_number":3113,"period_min":93.847309150646,"perigee_km":461.2797405721,"apogee_km":464.08310796237,"semimajor_km":6840.8184242672,"source":"CELESTRAK","updated_at":"2026-09-20T09:00:43.750885Z"}}